Wind_Speed
21 22 23 23 24 26 26 26 26 26 27 28 28 28 29 29 29 30 30 30 31 33 34 35 36 38 39 40 41 42 42 43 43 44 45 47 47 48 49 50 49 50 51 51
22 23 24 25 26 27 27 27 27 27 28 29 29 28 29 29 29 30 31 32 33 34 34 36 37 39 40 41 42 43 44 45 45 46 47 48 48 49 50 51 52 53 53 53
23 24 25 26 27 27 28 28 28 29 29 30 30 29 29 30 31 31 31 32 33 34 35 37 39 40 41 42 43 44 45 46 47 47 48 48 49 50 51 51 52 53 54 54
24 25 26 27 27 28 29 29 30 31 31 31 31 32 30 31 31 32 32 33 33 34 36 37 39 40 41 43 44 45 46 47 48 48 48 49 49 50 51 52 52 51 51 52
25 26 27 28 29 29 30 31 32 32 33 33 32 33 31 31 32 33 34 35 35 36 37 38 39 40 42 43 44 45 46 47 47 48 48 49 50 50 51 51 50 50 50 51
27 27 28 29 30 31 31 32 33 33 33 34 32 33 33 32 33 34 35 36 36 37 38 39 39 40 41 42 43 44 45 46 47 47 48 49 49 49 50 50 50 50 51 51
29 29 29 30 31 31 31 32 33 35 35 35 34 34 33 33 33 34 35 36 37 37 38 38 39 39 40 41 42 44 45 46 47 48 49 49 49 49 49 49 49 50 50 52
31 31 30 31 31 31 31 31 32 35 36 36 35 35 34 34 34 35 36 37 37 38 38 38 39 40 41 41 42 43 44 45 47 48 48 48 48 49 49 49 49 50 50 50
32 32 32 32 31 32 32 32 32 34 36 37 36 35 34 34 35 36 37 38 38 38 39 39 39 40 41 42 43 43 44 45 46 47 47 47 47 48 49 49 50 50 49 50
32 34 33 33 33 32 33 33 33 34 36 37 37 36 35 35 36 36 37 38 39 39 39 40 40 42 42 43 43 44 45 45 46 46 46 46 46 46 47 48 49 49 49 50
34 34 34 34 34 33 33 34 34 35 36 37 38 37 36 36 37 37 38 38 39 40 40 40 41 42 43 43 44 44 44 45 45 45 45 44 44 45 46 47 47 49 49 50
35 36 36 35 35 35 35 35 35 36 37 37 38 39 37 38 38 39 39 40 40 40 41 41 42 43 44 44 44 44 44 44 44 44 44 44 44 44 45 46 46 48 48 48
35 36 37 37 37 37 36 36 37 38 39 39 39 39 38 39 39 40 40 40 41 42 42 42 42 43 44 45 44 43 43 43 42 43 43 44 44 45 45 45 45 47 47 47
37 37 37 37 38 38 38 37 37 38 39 40 39 39 38 38 39 41 42 42 43 43 43 43 43 44 44 45 44 43 42 42 42 42 43 43 44 44 44 45 45 45 45 45
38 39 38 38 38 39 39 38 38 38 38 39 39 38 37 39 40 41 42 43 44 44 44 44 43 44 45 44 44 43 42 42 42 42 42 43 43 43 44 44 44 44 44 43
40 40 40 39 38 39 40 38 38 38 38 39 39 38 38 40 41 42 42 43 43 43 44 45 44 44 44 44 43 42 42 43 43 42 41 42 42 42 43 43 43 42 41 41
39 40 40 40 40 40 39 37 37 37 37 38 39 38 39 40 40 41 42 42 42 43 44 45 45 44 44 43 42 42 42 42 41 41 41 40 40 41 41 40 40 39 40 40
39 39 39 40 39 40 38 36 36 36 37 38 39 38 39 39 40 41 41 42 43 44 44 44 44 43 43 42 42 42 41 40 41 40 40 39 39 39 38 38 38 39 39 39
38 38 39 39 40 40 37 37 37 37 37 37 38 38 38 39 40 40 40 41 41 42 43 43 43 43 42 42 42 41 40 40 40 40 39 39 38 38 38 38 38 38 39 39
38 38 38 39 39 39 37 37 37 38 38 37 37 37 38 39 39 39 40 40 41 42 43 43 43 43 42 41 40 40 39 39 39 39 38 38 38 38 37 37 38 38 38 38
37 36 36 36 37 37 36 37 37 37 37 37 37 37 38 38 39 39 39 40 41 42 43 43 43 43 42 41 39 39 38 38 38 37 37 37 38 38 38 38 38 38 38 38
36 37 35 35 36 36 35 36 36 37 37 37 37 37 38 38 39 39 40 40 41 41 42 43 43 42 41 40 39 38 38 38 38 38 38 38 38 38 38 38 37 37 37 36
35 35 35 35 35 35 34 35 36 36 37 37 37 37 38 38 39 39 40 40 41 41 42 42 41 40 40 39 39 39 38 37 37 37 37 37 37 37 37 36 36 35 35 34
34 34 34 35 34 34 35 35 36 36 37 37 37 38 38 39 40 40 40 41 40 40 40 40 40 40 39 38 38 38 38 38 37 36 35 35 35 35 35 35 34 33 32 31
34 34 34 34 35 35 35 35 36 36 36 37 37 38 38 39 40 40 40 40 40 39 39 39 39 38 38 37 38 37 36 35 35 34 33 33 33 32 32 32 32 30 30 29
33 33 33 34 34 35 35 35 35 36 36 37 37 37 38 39 39 40 39 39 38 38 38 38 37 37 36 36 36 35 34 33 33 32 32 32 32 31 30 29 29 28 28 28
Wind_Direction
287 288 289 289 289 291 291 290 288 287 286 286 287 286 285 284 283 282 281 281 280 280 279 278 277 276 275 275 275 276 276 276 276 275 275 273 273 271 270 269 269 268 267 265
287 288 289 289 290 292 293 291 290 288 288 287 287 286 285 285 285 283 282 283 283 281 281 280 279 277 276 276 276 276 276 277 276 276 276 275 274 273 272 271 270 270 269 266
289 290 290 290 291 293 293 292 291 289 288 289 288 286 286 285 285 285 284 285 284 283 283 281 280 278 277 277 277 277 277 277 278 278 277 276 274 274 273 273 272 270 269 267
292 292 291 291 291 293 293 292 290 290 290 291 290 288 287 286 287 286 285 286 287 286 286 286 283 282 280 279 277 277 278 278 278 278 278 277 276 275 274 273 272 271 269 267
293 293 292 291 292 293 294 293 291 290 290 290 290 289 289 288 288 287 286 287 288 289 289 289 288 285 283 281 280 279 279 279 279 279 279 277 276 275 274 273 272 270 269 267
292 292 293 293 292 293 294 293 291 290 290 289 291 291 291 292 290 289 289 289 290 290 290 291 291 288 286 284 282 280 280 281 281 280 280 279 277 276 275 273 272 270 269 268
292 293 293 294 294 293 294 295 294 292 292 292 293 293 294 294 293 292 292 292 293 293 292 292 292 290 288 287 285 283 282 281 282 282 281 280 278 276 275 274 273 271 271 270
293 293 294 294 295 295 294 295 294 294 293 293 293 294 296 296 295 294 294 294 294 294 294 293 293 292 290 289 288 286 284 283 282 282 281 280 278 276 275 275 274 273 272 271
292 293 294 294 295 295 294 294 294 294 294 293 294 295 297 297 297 296 295 295 295 295 295 295 294 294 292 290 289 288 286 284 283 283 281 280 278 277 276 275 275 274 273 273
291 292 293 294 294 294 293 294 294 295 295 295 296 297 299 298 297 297 297 296 295 295 296 295 295 295 294 292 290 289 287 285 284 282 282 281 279 278 277 276 275 275 275 274
290 292 294 294 294 295 294 293 293 293 294 295 296 297 299 298 297 297 297 296 295 295 295 295 295 295 295 293 291 290 289 287 285 283 282 281 281 280 279 278 277 276 276 275
290 291 292 293 293 293 293 293 292 293 294 294 294 296 298 297 297 296 296 295 295 294 295 296 296 295 295 294 292 291 290 289 286 284 282 281 282 282 282 280 279 278 277 277
290 290 292 292 293 293 293 293 292 291 291 292 294 296 296 296 295 295 295 295 295 295 295 296 296 295 295 295 293 291 290 290 288 285 284 283 283 283 283 282 281 280 278 277
289 289 289 291 292 293 293 293 292 291 291 292 294 295 295 294 295 295 295 296 295 295 295 296 296 296 296 296 293 291 291 290 289 287 285 284 284 283 283 283 283 282 279 278
287 288 288 288 289 290 291 291 291 292 293 293 295 295 295 294 294 295 296 296 296 296 296 297 297 296 296 295 293 291 291 290 290 288 287 286 285 284 284 284 283 282 281 278
287 287 288 288 288 288 289 290 291 292 293 294 295 296 296 295 295 296 296 297 296 296 296 297 297 296 296 295 293 291 292 292 291 289 287 287 286 286 286 285 283 282 281 279
288 288 288 288 289 288 289 292 292 293 294 295 296 297 297 297 297 297 297 297 298 298 298 298 298 297 296 295 293 293 294 292 290 289 289 288 288 288 287 285 283 282 281 280
288 288 287 287 288 289 291 292 293 294 295 296 297 298 298 299 298 298 297 297 298 299 300 300 299 299 298 296 294 294 294 292 291 290 289 289 289 288 287 285 284 283 281 280
287 288 288 288 289 290 291 292 293 294 295 297 298 299 299 299 300 300 299 299 299 299 300 301 301 300 298 296 295 294 294 293 292 292 291 289 288 288 287 286 285 284 282 281
287 287 288 289 289 290 293 294 294 294 294 297 297 299 299 300 300 301 301 300 299 299 300 301 301 300 300 298 296 295 294 294 294 293 291 289 288 288 287 287 285 283 282 282
287 287 288 289 289 290 293 295 295 294 296 296 297 299 300 300 301 301 302 301 300 300 301 301 301 301 301 299 298 297 296 295 294 293 291 290 290 289 287 286 285 284 283 283
287 287 287 289 290 292 294 294 295 295 295 295 296 298 300 301 301 302 302 303 302 302 302 302 302 302 301 300 299 299 298 296 294 293 292 291 290 289 287 286 284 284 283 283
285 285 286 287 290 290 291 292 292 293 294 295 296 298 300 301 302 302 303 304 304 304 303 303 303 302 302 301 300 300 299 297 295 294 293 292 290 289 289 287 285 284 283 282
285 285 285 286 288 288 289 290 290 291 293 294 296 297 299 301 302 303 304 304 304 304 304 304 303 302 302 301 301 301 301 299 297 296 295 293 291 290 289 289 286 283 282 281
286 286 284 284 286 287 289 290 290 291 293 295 296 298 300 302 303 304 304 304 304 305 305 305 304 303 303 302 302 303 303 302 300 298 297 296 295 293 291 289 286 283 281 280
283 283 283 285 287 289 289 290 291 293 294 296 298 299 301 303 304 304 304 304 305 305 306 306 306 305 305 304 304 304 304 303 301 299 299 298 297 295 293 291 288 284 280 279
Height
5767 5766 5763 5761 5759 5757 5754 5752 5750 5748 5745 5743 5740 5738 5736 5734 5731 5729 5727 5725 5723 5721 5719 5717 5715 5713 5711 5710 5708 5707 5705 5703 5701 5700 5698 5696 5694 5693 5692 5691 5691 5690 5690 5690
5761 5759 5757 5754 5752 5750 5747 5745 5743 5740 5737 5735 5733 5731 5728 5726 5723 5721 5718 5716 5713 5712 5709 5707 5705 5702 5700 5699 5697 5695 5693 5691 5689 5687 5685 5683 5681 5680 5678 5677 5676 5676 5675 5675
5754 5753 5750 5748 5745 5743 5740 5738 5735 5733 5730 5727 5725 5723 5721 5718 5715 5713 5710 5707 5704 5702 5700 5697 5694 5691 5689 5687 5686 5683 5681 5678 5676 5674 5672 5669 5667 5666 5664 5663 5661 5660 5660 5660
5748 5746 5743 5741 5738 5736 5733 5730 5727 5724 5722 5719 5717 5714 5714 5710 5707 5704 5701 5698 5695 5692 5689 5686 5683 5680 5678 5676 5673 5671 5668 5666 5663 5661 5658 5656 5654 5652 5651 5649 5648 5646 5645 5645
5741 5739 5736 5734 5731 5728 5725 5722 5719 5716 5713 5711 5708 5704 5705 5701 5698 5695 5692 5689 5686 5683 5679 5676 5672 5669 5666 5663 5661 5658 5656 5653 5650 5648 5645 5643 5641 5639 5637 5635 5634 5632 5631 5631
5734 5731 5729 5726 5723 5720 5717 5714 5710 5707 5704 5702 5700 5696 5695 5692 5689 5685 5682 5679 5676 5672 5669 5665 5661 5658 5655 5652 5649 5646 5643 5641 5638 5635 5632 5629 5627 5625 5623 5621 5620 5619 5618 5617
5726 5724 5721 5718 5715 5712 5709 5706 5701 5697 5695 5693 5690 5687 5686 5683 5679 5675 5672 5669 5665 5661 5658 5654 5650 5647 5643 5640 5637 5633 5631 5628 5625 5622 5619 5616 5613 5611 5609 5608 5606 5605 5603 5603
5718 5716 5713 5710 5707 5704 5700 5697 5694 5689 5686 5683 5681 5678 5677 5673 5669 5665 5662 5658 5655 5651 5647 5643 5639 5635 5632 5628 5624 5621 5618 5615 5612 5608 5605 5602 5600 5597 5595 5594 5592 5590 5589 5588
5708 5707 5704 5701 5698 5695 5691 5689 5686 5681 5676 5673 5671 5669 5667 5663 5659 5655 5652 5648 5644 5640 5636 5632 5628 5624 5620 5616 5612 5608 5605 5602 5598 5595 5592 5589 5586 5584 5582 5580 5578 5576 5574 5573
5699 5697 5695 5692 5689 5686 5683 5680 5676 5672 5667 5664 5661 5659 5658 5653 5649 5645 5641 5637 5634 5630 5626 5621 5617 5613 5608 5604 5600 5596 5592 5589 5585 5582 5578 5575 5573 5570 5568 5566 5564 5562 5560 5558
5690 5688 5686 5683 5680 5677 5674 5671 5666 5663 5659 5655 5651 5652 5647 5643 5638 5635 5631 5627 5623 5619 5615 5611 5606 5601 5597 5592 5588 5584 5580 5576 5572 5568 5565 5562 5560 5557 5554 5552 5550 5548 5546 5544
5681 5678 5675 5673 5670 5667 5664 5661 5658 5654 5650 5646 5641 5643 5637 5632 5628 5624 5621 5617 5612 5608 5604 5600 5595 5590 5585 5580 5576 5571 5567 5563 5559 5555 5552 5550 5547 5544 5541 5539 5536 5534 5532 5529
5670 5667 5664 5662 5661 5658 5654 5651 5647 5644 5640 5636 5632 5633 5627 5622 5617 5613 5610 5605 5601 5597 5593 5588 5584 5579 5574 5568 5564 5559 5555 5550 5546 5543 5540 5537 5534 5531 5528 5525 5523 5520 5518 5515
5660 5657 5656 5653 5649 5646 5643 5641 5637 5633 5629 5625 5623 5620 5617 5611 5606 5602 5598 5594 5590 5586 5581 5577 5572 5567 5562 5557 5552 5547 5543 5538 5534 5530 5527 5524 5521 5518 5515 5512 5509 5507 5504 5502
5649 5647 5644 5642 5639 5636 5633 5630 5626 5622 5619 5615 5613 5609 5606 5600 5595 5591 5587 5582 5578 5574 5569 5565 5560 5555 5550 5545 5540 5535 5531 5527 5522 5519 5515 5512 5508 5505 5502 5499 5496 5493 5491 5489
5637 5635 5633 5631 5628 5624 5621 5620 5616 5612 5608 5605 5601 5599 5595 5589 5585 5580 5576 5571 5567 5562 5558 5553 5548 5543 5538 5533 5528 5524 5519 5515 5510 5506 5503 5499 5496 5492 5489 5486 5483 5480 5478 5476
5626 5624 5621 5619 5616 5612 5611 5610 5606 5602 5599 5595 5590 5588 5583 5578 5573 5569 5564 5560 5555 5551 5546 5541 5536 5531 5526 5521 5517 5512 5507 5503 5499 5495 5491 5487 5484 5480 5477 5474 5471 5469 5467 5464
5616 5613 5609 5607 5605 5601 5603 5599 5595 5591 5588 5584 5580 5576 5572 5567 5563 5558 5554 5549 5544 5539 5534 5529 5524 5519 5514 5509 5504 5500 5495 5491 5487 5483 5479 5475 5472 5468 5465 5462 5460 5457 5455 5453
5605 5602 5598 5595 5592 5590 5591 5588 5584 5580 5578 5574 5569 5565 5561 5556 5552 5548 5543 5538 5533 5528 5523 5518 5513 5508 5503 5498 5493 5488 5484 5479 5475 5471 5467 5463 5460 5457 5454 5451 5448 5446 5443 5441
5594 5591 5589 5585 5581 5579 5581 5578 5572 5569 5567 5564 5559 5555 5550 5546 5542 5539 5533 5527 5522 5517 5512 5507 5502 5497 5492 5486 5481 5477 5472 5468 5464 5459 5456 5452 5449 5446 5443 5440 5437 5434 5431 5429
5583 5580 5578 5574 5571 5569 5570 5566 5562 5560 5557 5552 5548 5544 5540 5536 5532 5527 5522 5517 5512 5506 5501 5496 5491 5485 5480 5475 5470 5466 5461 5457 5452 5448 5444 5441 5437 5434 5431 5428 5425 5422 5420 5417
5572 5570 5568 5565 5562 5563 5559 5555 5552 5549 5544 5541 5537 5534 5530 5526 5521 5516 5511 5506 5501 5496 5490 5485 5480 5474 5469 5464 5460 5455 5450 5446 5441 5437 5433 5429 5425 5422 5419 5416 5413 5410 5408 5405
5562 5560 5557 5556 5555 5551 5547 5544 5541 5537 5534 5530 5527 5524 5520 5515 5511 5506 5501 5496 5490 5485 5479 5474 5469 5463 5458 5453 5449 5444 5439 5435 5430 5426 5421 5417 5413 5410 5407 5404 5401 5399 5396 5394
5551 5549 5547 5545 5543 5540 5537 5533 5530 5527 5523 5520 5517 5513 5509 5505 5500 5495 5490 5485 5480 5474 5469 5463 5458 5453 5448 5443 5438 5433 5429 5424 5419 5415 5411 5407 5403 5399 5396 5393 5390 5388 5386 5384
5541 5538 5535 5533 5532 5529 5527 5523 5520 5517 5513 5510 5506 5503 5499 5494 5490 5485 5480 5474 5469 5464 5458 5453 5447 5442 5437 5432 5428 5423 5418 5414 5409 5405 5401 5397 5393 5389 5386 5382 5380 5377 5376 5374
5531 5528 5525 5523 5521 5518 5516 5513 5510 5507 5504 5500 5497 5493 5488 5484 5479 5474 5469 5464 5459 5454 5448 5443 5437 5432 5427 5422 5418 5413 5409 5404 5400 5396 5391 5387 5383 5380 5376 5373 5370 5368 5367 5365